Rochester, Indiana, United States (46975)
Lat: 41.06N, Lon: 86.22W
Wx Zone: INZ015
Local Info
Past Weather Observations for Today

NOTE: This archive is for the closest National Weather Service station to Rochester. Information may differ from the station used for current weather conditions.

Click here for Long-term Archive

Time Weather Temperature Dewpoint Humidity Pressure Winds Precip Visibility
15:55
Partly Cloudy
14°F / -10°C 3°F / -16°C 62% 30.51 in
(1033 mb)
W 16.1 mph
(W 26 kph)
- 10SM
15:35
Partly Cloudy
16°F / -9°C 3°F / -16°C 57% 30.51 in
(1033 mb)
W 17.3 mph
(W 28 kph)
- 10SM
15:15
Clear
16°F / -9°C 3°F / -16°C 57% 30.51 in
(1033 mb)
WNW 17.3 mph
(WNW 28 kph)
- 10SM
14:55
Partly Cloudy
16°F / -9°C 5°F / -15°C 62% 30.51 in
(1033 mb)
WNW 15 mph
(WNW 24 kph)
- 10SM
14:35
Clear
16°F / -9°C 5°F / -15°C 62% 30.51 in
(1033 mb)
W 18.4 mph
(W 30 kph)
- 10SM
14:15
Clear
16°F / -9°C 5°F / -15°C 62% 30.51 in
(1033 mb)
NW 17.3 mph
(NW 28 kph)
- 10SM
13:55
Partly Cloudy
16°F / -9°C 7°F / -14°C 67% 30.51 in
(1033 mb)
WNW 18.4 mph
(WNW 30 kph)
- 10SM
13:35
Mostly Cloudy
16°F / -9°C 7°F / -14°C 67% 30.51 in
(1033 mb)
WNW 16.1 mph
(WNW 26 kph)
- 10SM
13:15
Mostly Cloudy
16°F / -9°C 7°F / -14°C 67% 30.51 in
(1033 mb)
W 20.7 mph
(W 33 kph)
- 10SM
12:55
Partly Cloudy
14°F / -10°C 7°F / -14°C 73% 30.51 in
(1033 mb)
W 17.3 mph
(W 28 kph)
- 10SM
12:35
Partly Cloudy
14°F / -10°C 5°F / -15°C 67% 30.51 in
(1033 mb)
WNW 12.7 mph
(WNW 20 kph)
- 10SM
12:15
Clear
14°F / -10°C 5°F / -15°C 67% 30.51 in
(1033 mb)
W 16.1 mph
(W 26 kph)
- 10SM
11:55
Clear
14°F / -10°C 5°F / -15°C 67% 30.51 in
(1033 mb)
WNW 16.1 mph
(WNW 26 kph)
- 10SM
11:35
Clear
12°F / -11°C 5°F / -15°C 73% 30.51 in
(1033 mb)
W 16.1 mph
(W 26 kph)
- 10SM
11:15
Clear
12°F / -11°C 5°F / -15°C 73% 30.51 in
(1033 mb)
W 16.1 mph
(W 26 kph)
- 10SM
10:55
Clear
12°F / -11°C 3°F / -16°C 67% 30.51 in
(1033 mb)
W 16.1 mph
(W 26 kph)
- 10SM
10:35
Partly Cloudy
Hazy
10°F / -12°C 3°F / -16°C 72% 30.51 in
(1033 mb)
W 12.7 mph
(W 20 kph)
- 5SM
10:15
Partly Cloudy
10°F / -12°C 3°F / -16°C 72% 30.51 in
(1033 mb)
SSW 13.8 mph
(SSW 22 kph)
- 10SM
09:55
Mostly Cloudy
Hazy
9°F / -13°C 3°F / -16°C 78% 30.51 in
(1033 mb)
SSW 12.7 mph
(SSW 20 kph)
- 5SM
09:35
Overcast
Light Snow
9°F / -13°C 3°F / -16°C 78% 30.51 in
(1033 mb)
W 12.7 mph
(W 20 kph)
- 2 1/2SM
09:15
Overcast
Light Snow
9°F / -13°C 3°F / -16°C 78% 30.51 in
(1033 mb)
SSW 9.2 mph
(SSW 15 kph)
- 1SM
08:55
Overcast
Light Snow
10°F / -12°C 5°F / -15°C 79% 30.48 in
(1032 mb)
SSW 8.1 mph
(SSW 13 kph)
- 2SM
08:35
Overcast
Light Snow
9°F / -13°C 5°F / -15°C 85% 30.48 in
(1032 mb)
SSW 5.8 mph
(SSW 9 kph)
- 1SM
08:15
Overcast
Light Snow
7°F / -14°C 3°F / -16°C 85% 30.48 in
(1032 mb)
SSW 3.5 mph
(SSW 6 kph)
- 1 1/4SM
07:55
Mostly Cloudy
Light Snow
5°F / -15°C 1°F / -17°C 85% 30.48 in
(1032 mb)
Calm - 4SM
07:35
Overcast
Light Snow
7°F / -14°C 1°F / -17°C 78% 30.48 in
(1032 mb)
SSW 3.5 mph
(SSW 6 kph)
- 4SM
07:15
Overcast
Light Snow
7°F / -14°C 1°F / -17°C 78% 30.45 in
(1031 mb)
SSW 4.6 mph
(SSW 7 kph)
- 5SM
06:55
Overcast
5°F / -15°C 1°F / -17°C 85% 30.45 in
(1031 mb)
SSW 4.6 mph
(SSW 7 kph)
- 7SM
06:35
Mostly Cloudy
Light Snow
5°F / -15°C 1°F / -17°C 85% 30.45 in
(1031 mb)
SSW 3.5 mph
(SSW 6 kph)
- 10SM
06:15
Mostly Cloudy
Light Snow
5°F / -15°C 1°F / -17°C 85% 30.45 in
(1031 mb)
Calm - 7SM
05:55
Overcast
Light Snow
5°F / -15°C 1°F / -17°C 85% 30.45 in
(1031 mb)
Calm - 7SM
05:35
Overcast
Unknown Precip
5°F / -15°C 1°F / -17°C 85% 30.45 in
(1031 mb)
Calm - 4SM
05:15
Overcast
Light Snow
5°F / -15°C 1°F / -17°C 85% 30.45 in
(1031 mb)
N 3.5 mph
(N 6 kph)
- 5SM
04:55
Overcast
5°F / -15°C 1°F / -17°C 85% 30.42 in
(1030 mb)
Calm - 10SM
04:35
Mostly Cloudy
5°F / -15°C °F / -18°C 78% 30.42 in
(1030 mb)
Calm - 10SM
04:15
Mostly Cloudy
5°F / -15°C °F / -18°C 78% 30.42 in
(1030 mb)
Calm - 10SM
03:55
Mostly Cloudy
7°F / -14°C 1°F / -17°C 78% 30.42 in
(1030 mb)
N 4.6 mph
(N 7 kph)
- 10SM
03:35
Mostly Cloudy
9°F / -13°C 1°F / -17°C 72% 30.42 in
(1030 mb)
N 4.6 mph
(N 7 kph)
- 10SM
03:15
Overcast
9°F / -13°C 1°F / -17°C 72% 30.39 in
(1029 mb)
NE 8.1 mph
(NE 13 kph)
- 10SM
02:55
Overcast
10°F / -12°C 3°F / -16°C 72% 30.39 in
(1029 mb)
NE 8.1 mph
(NE 13 kph)
- 10SM
02:35
Overcast
10°F / -12°C 3°F / -16°C 72% 30.39 in
(1029 mb)
N 6.9 mph
(N 11 kph)
- 10SM
02:15
Mostly Cloudy
Light Snow
10°F / -12°C 5°F / -15°C 79% 30.36 in
(1028 mb)
NNE 9.2 mph
(NNE 15 kph)
- 7SM
01:55
Overcast
Light Snow
10°F / -12°C 5°F / -15°C 79% 30.36 in
(1028 mb)
N 6.9 mph
(N 11 kph)
- 7SM
01:35
Overcast
Light Snow
10°F / -12°C 7°F / -14°C 85% 30.36 in
(1028 mb)
N 8.1 mph
(N 13 kph)
- 3SM
01:15
Mostly Cloudy
Light Snow
12°F / -11°C 7°F / -14°C 79% 30.33 in
(1027 mb)
NNW 10.4 mph
(NNW 17 kph)
- 7SM
00:55
Partly Cloudy
12°F / -11°C 7°F / -14°C 79% 30.33 in
(1027 mb)
NW 9.2 mph
(NW 15 kph)
- 10SM
00:35
Mostly Cloudy
12°F / -11°C 9°F / -13°C 85% 30.33 in
(1027 mb)
NW 11.5 mph
(NW 19 kph)
- 10SM
00:15
Clear
12°F / -11°C 9°F / -13°C 85% 30.3 in
(1026 mb)
NW 12.7 mph
(NW 20 kph)
- 10SM
Time Weather Temperature Dewpoint Humidity Pressure Winds Precip Visibility


Weather for websites

WeatherForYou.com, LLC is not responsible for any damages or problems caused by this service. Current weather conditions are obtained from the closest station including government and personal stations which may have varying degrees of accuracy. Weather forecasts are derived from the NOAA NDFD. Like all things, this site belongs to Jesus Christ... He just trusts us to maintain it. If you have any questions or comments email webmaster@weatherforyou.com

Copyright © 2016, WeatherForYou.com LLC. All rights reserved.